Whiteman AFB, MO

11:20 PM CST on December 11, 2019 (GMT -0600)
Whiteman Air Force Base

Weather History for KSZL - October, 2019

Change the Weather History Date:

Friday, October 4, 2019

  Actual Average Record
Temperature  
Mean Temperature 58 °F -  
Max Temperature 68 °F 70 °F 86 °F (1997)
Min Temperature 50 °F 49 °F 37 °F (2010)
Degree Days  
Heating Degree Days 6    
Growing Degree Days 8 (Base 50)    
Moisture  
Dew Point 50 °F    
Average Humidity 80    
Maximum Humidity 100    
Minimum Humidity 51    
Precipitation  
Precipitation 0.00 in - - ()
Sea Level Pressure  
Sea Level Pressure 30.24 in    
Wind  
Wind Speed 6 mph (ENE)    
Max Wind Speed 10 mph    
Max Gust Speed -    
Visibility 10 miles    
Events      
Averages and records for this station are not official NWS values.
T = Trace of Precipitation, MM = Missing Value Source: NWS Daily Summary

Daily Weather History Graph

Daily Weather History Graph

Search for Another Location

Airport or City:

Astronomy

Oct. 04, 2019 Rise Set
Actual Time 7:12 AM CDT 6:52 PM CDT
Civil Twilight 6:46 AM CDT 7:19 PM CDT
Nautical Twilight 6:15 AM CDT 7:49 PM CDT
Astronomical Twilight 5:44 AM CDT 8:20 PM CDT
Moon 1:41 PM CDT (10/4) 11:25 PM CDT (10/4)
Length of Visible Light 12h 32m
Length of Day
11h 39m
Waxing Crescent, 40% of the Moon is Illuminated
Oct 4
Waxing Crescent
Oct 5
First Quarter
Oct 13
Full
Oct 21
Last Quarter
Oct 27
New

Hourly Weather History & Observations

Time (CDT) Temp. Dew Point Humidity Pressure Visibility Wind Dir Wind Speed Gust Speed Precip Events Conditions
12:56 AM 52.3 °F 52.3 °F 100% 30.29 in 10.0 mi NE 5.8 mph - N/A   Mostly Cloudy
1:56 AM 52.2 °F 52.2 °F 100% 30.28 in 10.0 mi NE 5.8 mph - N/A   Mostly Cloudy
2:56 AM 51.6 °F 51.6 °F 100% 30.28 in 10.0 mi NE 8.1 mph - N/A   Mostly Cloudy
3:56 AM 51.4 °F 51.4 °F 100% 30.28 in 10.0 mi NE 6.9 mph - N/A   Mostly Cloudy
4:56 AM 51.1 °F 51.1 °F 100% 30.29 in 10.0 mi NE 8.1 mph - N/A   Mostly Cloudy
5:56 AM 50.9 °F 50.0 °F 97% 30.30 in 10.0 mi NE 5.8 mph - N/A   Mostly Cloudy
6:56 AM 50.7 °F 48.6 °F 92% 30.31 in 10.0 mi NE 9.2 mph - N/A   Overcast
7:56 AM 50.5 °F 48.4 °F 92% 30.32 in 10.0 mi ENE 10.4 mph - N/A   Mostly Cloudy
8:56 AM 50.5 °F 47.5 °F 89% 30.32 in 10.0 mi ENE 5.8 mph - N/A   Mostly Cloudy
9:56 AM 54.1 °F 47.5 °F 78% 30.33 in 10.0 mi ENE 4.6 mph - N/A   Mostly Cloudy
10:56 AM 57.9 °F 48.9 °F 72% 30.32 in 10.0 mi East 4.6 mph - N/A   Mostly Cloudy
11:56 AM 60.3 °F 48.9 °F 66% 30.28 in 10.0 mi East 8.1 mph - N/A   Mostly Cloudy
12:56 PM 62.6 °F 48.2 °F 59% 30.25 in 6.2 mi East 5.8 mph - N/A   Mostly Cloudy
2:56 PM 65.7 °F 48.6 °F 54% 30.21 in 10.0 mi NE 6.9 mph - N/A   Mostly Cloudy
3:56 PM 67.3 °F 48.6 °F 51% 30.19 in 10.0 mi ENE 8.1 mph - N/A   Mostly Cloudy
4:56 PM 67.5 °F 50.2 °F 54% 30.19 in 10.0 mi ENE 8.1 mph - N/A   Scattered Clouds
5:56 PM 64.0 °F 50.4 °F 61% 30.18 in 10.0 mi East 5.8 mph - N/A   Mostly Cloudy
6:56 PM 62.4 °F 51.6 °F 68% 30.18 in 10.0 mi ENE 3.5 mph - N/A   Mostly Cloudy
7:56 PM 60.1 °F 50.7 °F 71% 30.15 in 10.0 mi East 4.6 mph - N/A   Scattered Clouds
8:56 PM 58.3 °F 51.8 °F 79% 30.15 in 10.0 mi Calm Calm - N/A   Scattered Clouds
9:56 PM 56.3 °F 52.5 °F 87% 30.14 in 10.0 mi Calm Calm - N/A   Mostly Cloudy
10:56 PM 57.0 °F 52.5 °F 85% 30.12 in 10.0 mi ESE 3.5 mph - N/A   Mostly Cloudy
11:56 PM 57.0 °F 51.6 °F 82% 30.08 in 10.0 mi ESE 8.1 mph - N/A   Mostly Cloudy